User: anonymous   Login
Location: Unspecified
(0.0000°N, 0.0000°E)
Time: 17:40:47
(UTC+00:00)
Language:

CARTOSAT-1 - Orbit

View from above orbital plane
View from above orbital plane
View from above satellite
View from above satellite

Ground track
Ground track

The orbit data is extracted from the following two-line orbital elements,

1 28649U 05017A   18018.32554463 -.00000133  00000-0 -98172-5 0  9993
2 28649  97.8403  94.1003 0003573  71.4752 288.6812 14.83466000687876
Epoch (UTC): 18 January 2018 07:48:47
Eccentricity: 0.0003573
inclination: 97.8403°
perigee height: 616 km
apogee height: 621 km
right ascension of ascending node: 94.1003°
argument of perigee: 71.4752°
revolutions per day: 14.83466000
mean anomaly at epoch: 288.6812°
orbit number at epoch: 68787

The dashed part of the orbit path shows where the satellite is in the earth's shadow,  

DLR